Regional Weather Roundup
Issued by NWS

Home | Current Version | Previous Version | Graphics & Text | Print | Product List | Glossary On
Versions: 1 2 3 4 5 6 7 8 9 10 11 12 13 14 15 16 17 18 19 20 21 22 23 24 25 26 27 28 29 30 31 32 33 34 35 36 37 38 39 40 41 42 43 44 45 46 47 48 49 50
000
ASUS43 KLMK 271102
RWRKY
KENTUCKY REGIONAL WEATHER ROUNDUP
NATIONAL WEATHER SERVICE LOUISVILLE KY
700 AM EDT MON APR 27 2015

NOTE "FAIR" INDICATES FEW OR NO CLOUDS BELOW 12,000 FEET
WITH NO SIGNIFICANT WEATHER AND/OR OBSTRUCTIONS TO VISIBILITY.

KYZ001>023-026-027-061>063-070>075-271200-
WESTERN AND SOUTH CENTRAL KENTUCKY

CITY           SKY/WX    TMP DP  RH WIND       PRES   REMARKS
PADUCAH        PTCLDY    43  35  73 N7        29.99R
HENDERSON      CLEAR     45  30  57 N6        30.00R
OWENSBORO      CLEAR     43  35  73 N8        30.00R
HOPKINSVILLE   CLEAR     41  37  86 N7        29.96S
BOWLING GREEN  CLEAR     44  35  70 N3        29.97R
GLASGOW        NOT AVBL
$$

KYZ024-025-028>034-038-045-046-053-271200-
NORTH CENTRAL KENTUCKY

CITY           SKY/WX    TMP DP  RH WIND       PRES   REMARKS
LOUISVILLE/SDF PTCLDY    43  35  73 SW3       29.96R
LOUISVILLE/LOU CLEAR     40  35  83 CALM      29.97R
FORT KNOX      CLEAR     36  33  89 SW1       29.94R
$$

KYZ035>037-039>044-047>052-055>060-089>105-271200-
NORTHEAST KENTUCKY

CITY           SKY/WX    TMP DP  RH WIND       PRES   REMARKS
LEXINGTON      CLEAR     38  33  82 CALM      29.94R
COVINGTON      CLEAR     37  33  85 CALM      29.94R
FRANKFORT      CLEAR     35  32  88 CALM      29.93R
$$

KYZ054-064>069-076>088-106>120-271200-
SOUTHEAST KENTUCKY

CITY           SKY/WX    TMP DP  RH WIND       PRES   REMARKS
JACKSON        CLEAR     42  30  62 VRB3      29.92R
LONDON         FAIR      39  33  79 CALM      29.93R
SOMERSET       NOT AVBL
MIDDLESBORO    FOG       37  37 100 CALM      29.92R VSB<1/4
MONTICELLO     SUNNY     35  35 100 CALM      29.98R
$$




USA.gov is the U.S. government's official web portal to all federal, state and local government web resources and services.